Home   Weather   Starnberg   Past weeks

Flag for Germany Past Weather in Starnberg, Bavaria, Germany — Yesterday and Last 2 Weeks

Now
21 °F

Passing clouds.


Feels Like: 9 °F
Forecast: 13 / 19 °F
Wind: 13 mph from East

Location: Oberpfaffenhofen

Current Time: Jan 18, 2017 at 7:12:20 pm

Latest Report: Jan 18, 2017 at 6:20 pm


Visibility: N/A

Pressure: 30.45 "Hg (28.24 "Hg at 590m altitude)

Humidity: 80%

Dew Point: 16 °F

Location of StarnbergLocation

Past Weather in Starnberg — Graph

°F

Starnberg Temperature Yesterday

Maximum temperature yesterday: 23 °F (at 3:20 pm)
Minimum temperature yesterday: 16 °F (at 10:20 am)
Average temperature yesterday: 20 °F

High & Low Weather Summary for the Past Weeks

 TemperatureHumidityPressure
High39 °F (Jan 12, 11:50 am)100% (Jan 4, 4:50 pm)30.63 "Hg (Jan 4, 4:50 pm)
Low7 °F (Jan 6, 9:20 am)55% (Jan 13, 1:50 pm)29.47 "Hg (Jan 13, 7:20 am)
Average27 °F84%30.07 "Hg
* Reported Jan 3 5:20 pm — Jan 18 5:50 pm, Starnberg, Weather by CustomWeather, © 2017

Note: Actual official high and low records may vary slightly from our data, if they occured in-between our weather recording intervals... More about our weather records

Advertising

Starnberg Weather History for the Previous 24 Hours

Scroll right to see more
 ConditionsComfort  
Time TempWeatherWind HumidityBarometerVisibility
5:50 pm
Wed, Jan 18
21 °FPassing clouds.14 mph80%30.45 "HgN/A
5:20 pm23 °FPassing clouds.15 mph74%30.45 "HgN/A
4:50 pm23 °FPartly sunny.13 mph74%30.45 "HgN/A
4:20 pm23 °FPartly sunny.15 mph74%30.45 "HgN/A
3:50 pm23 °FPartly sunny.16 mph74%30.45 "HgN/A
3:20 pm23 °FPartly sunny.13 mph74%30.45 "HgN/A
2:50 pm23 °FPartly sunny.13 mph74%30.45 "HgN/A
2:20 pm23 °FPartly sunny.13 mph74%30.45 "HgN/A
1:50 pm23 °FPartly sunny.15 mph74%30.45 "HgN/A
1:20 pm23 °FPartly sunny.16 mph74%30.45 "HgN/A
12:50 pm23 °FPartly sunny.15 mph74%30.45 "HgN/A
12:20 pm23 °FPartly sunny.18 mph74%30.45 "HgN/A
11:50 am23 °FPartly sunny.16 mph74%30.45 "HgN/A
11:20 am23 °FPartly sunny.20 mph74%30.45 "HgN/A
10:50 am21 °FPartly sunny.18 mph80%30.45 "HgN/A
10:20 am21 °FBroken clouds.12 mph80%30.45 "HgN/A
9:50 am19 °FBroken clouds.10 mph86%30.45 "HgN/A
9:20 am19 °FPartly sunny.12 mph86%30.45 "HgN/A
8:50 am19 °FPartly sunny.12 mph86%30.45 "HgN/A
8:20 am19 °FPartly sunny.12 mph86%30.45 "HgN/A
7:50 am19 °FPassing clouds.12 mph86%30.42 "HgN/A
7:20 am19 °FPassing clouds.12 mph86%30.42 "Hg6 mi
6:50 am19 °FPassing clouds.12 mph86%30.42 "Hg6 mi
8:20 pm
Tue, Jan 17
21 °FPassing clouds.13 mph80%30.42 "HgN/A
7:50 pm21 °FPassing clouds.10 mph80%30.42 "HgN/A
7:20 pm21 °FPassing clouds.9 mph80%30.42 "HgN/A
Weather by CustomWeather, © 2017

See weather overviewHow to use our weather pages